Regional Weather Roundup
Issued by NWS Upton, NY

Current Version | Previous Version | Graphics & Text | Print | Product List | Glossary Off
Versions: 1 2 3 4 5 6 7 8 9 10 11 12 13 14 15 16 17 18 19 20 21 22 23 24 25 26 27 28 29 30 31 32 33 34 35 36 37 38 39 40 41 42 43 44 45 46 47 48 49

000
ASUS41 KOKX 241605
RWROKX

REGIONAL WEATHER ROUNDUP
NATIONAL WEATHER SERVICE NEW YORK NY
1100 AM EST MON NOV 24 2014

NOTE: "FAIR" INDICATES FEW OR NO CLOUDS BELOW 12,000 FEET WITH NO
SIGNIFICANT WEATHER AND/OR OBSTRUCTIONS TO VISIBILITY.

NYZ071-072-176-178-NJZ106-104-241700-
NEW YORK CITY METRO AREA


CITY           SKY/WX    TMP DP  RH WIND       PRES   REMARKS
CENTRAL PARK   CLOUDY    65  60  84 VRB3      29.68F
LAGUARDIA APRT PTSUNNY   63  59  87 S10       29.66F
KENNEDY INTL   FOG       60  58  92 S22G28    29.69F VSB 1/2
NEWARK/LIBERTY PTSUNNY   67  59  73 S15G24    29.65F
BRNX BOT. GARD   N/A     61  59  94 SE10      29.69S
TETERBORO      CLOUDY    67  60  78 S12       29.64F
$$

NYZ177-179-078>081-241700-
LONG ISLAND NEW YORK

CITY           SKY/WX    TMP DP  RH WIND       PRES   REMARKS
FARMINGDALE    FOG       62  59  90 SW23      29.70F VSB 1/4
ISLIP          FOG       61  59  93 S17G31    29.69F VSB 1/4
SHIRLEY        FOG       60  59  96 S16G25    29.73S VSB 1/2
WESTHAMPTON    FOG       62  60  93 S13G26    29.73F VSB 1
MONTAUK POINT    N/A     62  60  93 S15G26    29.74F
$$

NYZ052-065-067-241700-
HUDSON VALLEY

CITY           SKY/WX    TMP DP  RH WIND       PRES   REMARKS
WHITE PLAINS     N/A     61  59  93 S9G16     29.66F FOG
NEWBURGH       CLOUDY    64  61  88 S18G24    29.64F
MONTGOMERY     CLOUDY    67  58  72 SW12      29.60F
POUGHKEEPSIE   CLOUDY    66  59  78 S9        29.62F
ALBANY         PTSUNNY   63  59  87 S17G23    29.57F
$$

NJZ001-105-106-008-010-013-015-019>022-104-241700-
NEW JERSEY

CITY           SKY/WX    TMP DP  RH WIND       PRES   REMARKS
NEWARK/LIBERTY PTSUNNY   67  59  73 S15G24    29.65F
TETERBORO      CLOUDY    67  60  78 S12       29.64F
CALDWELL       CLOUDY    67  59  75 SW8G18    29.64F
MORRISTOWN     PTSUNNY   70  61  73 SW17G28   29.64F
SOMERVILLE     CLOUDY    69  59  70 MISG      29.63F
SUSSEX         CLOUDY    68  59  73 S13G22    29.62F
ANDOVER          N/A     66  58  75 SW8G21    29.62F
TRENTON        PTSUNNY   69  60  73 SW18G35   29.65F
MILLVILLE      SUNNY     69  61  75 SW9G20    29.70F
ATLANTIC CITY  CLOUDY    61  60  97 S13       29.71F FOG
WRIGHTSTOWN    MOSUNNY   70  62  75 SW24G33   29.65F
TOMS RIVER     CLOUDY    66  63  88 S8G16     29.69F
BELMAR         CLOUDY    66  59  77 S16       29.68F
$$

PAZ047>061-062-071-241700-
EASTERN PENNSYLVANIA

CITY           SKY/WX    TMP DP  RH WIND       PRES   REMARKS
PHILADELPHIA   PTSUNNY   70  60  70 SW21G30   29.67F
ALLENTOWN      CLOUDY    69  58  67 SW13G21   29.62F
SCRANTON       MOSUNNY   68  55  63 S20G36    29.55F
$$

CTZ002-004>006-009-010-012-RIZ004-006-007-MAZ004-011-015-241700-
SOUTHERN NEW ENGLAND
 IN CT

CITY           SKY/WX    TMP DP  RH WIND       PRES   REMARKS
BRADLEY INTL   CLOUDY    64  60  87 S14G23    29.65F
HARTFORD       CLOUDY    62  60  93 S17G25    29.67F FOG
DANBURY        CLOUDY    62  58  86 S13       29.68S
WTRBRY/OXFORD  DRZL/FOG  61  55  82 SW12G18   29.71F VSB 1/2
BRIDGEPORT     CLOUDY    60  59  96 S17G26    29.68F
MERIDEN          N/A     61  59  93 S14       29.68F FOG
NEW HAVEN      FOG       61  57  87 S7        29.70F VSB 1
CHESTER        FOG       61  61 100 S15G25    29.71F VSB 1
GROTON         CLOUDY    59  32  36 S21       29.72S FOG
WILLIMANTIC    LGT RAIN  64  61  90 S10G20    29.69F

 IN RI

CITY           SKY/WX    TMP DP  RH WIND       PRES   REMARKS
PROVIDENCE     RAIN      63  61  93 SW16G35   29.71F FOG
BLOCK ISLAND   CLOUDY    61  57  88 S26G33    29.73F
WESTERLY       LGT RAIN  61  60  97 S23G33    29.73F FOG

 IN MA

CITY           SKY/WX    TMP DP  RH WIND       PRES   REMARKS
BOSTON         LGT RAIN  61  60  97 S14       29.69F FOG
WORCESTER      LGT RAIN  60  59  96 SW15G23   29.68F FOG
WESTFIELD      CLOUDY    63  60  90 S13       29.64F
PROVINCETOWN   CLOUDY    63  55  77 S20G35    29.75F
NANTUCKET      LGT RAIN  58  56  93 S28G37    29.80F VSB 1
$$

ANZ330-335-338-340-345-350-353-355-241700-
COASTAL MARINE OBSERVATIONS


STATION/POSITION TIME  SKY/WX   TEMP    WIND        PRES    VSBY  WAVE
                                AIR SEA DIR/SP/G                  HT/PER
                 (UTC)          (F)     (DEG/KT/KT) (MB)    (MI)  (FT/S)
NY HARB ENTRANCE 1600            58 55  210/ 23/ 29 1005.4          7/ 7
4S FIRE IS       1600               53                N/A           9/ 8
20S FIRE ISLAND  1600            60 56  190/ 21/ 25 1005.6          9/ 7
23SW MTP         1600                                 N/A          10/ 7
HUDSON CANYON    1600            64 60  190/ 25/ 31 1007.1         13/10
EXECUTION ROCKS  1600            59 48  200/ 12/ 16   N/A
WESTERN LI SOUND 1600            60     180/ 14/ 17   N/A           1/ 3
CENTRAL LI SOUND 1500            58 51  210/ 16/ 21   N/A           3/ 4
EASTERN LI SOUND 1500            59 53  200/ 17/ 23   N/A
ROBBINS REEF     1600            63     170/ 12/ 13 1003.2
$$


>>>>>>>>>>>>>>>>>>>>>>>>>>>> KEY <<<<<<<<<<<<<<<<<<<<<<<<<<<
>                                                          <
>     SKY/WX - SKY CONDITION/PRESENT WEATHER               <
>     TMP    - TEMPERATURE IN FAHRENHEIT                   <
>     DP     - DEWPOINT IN FAHRENHEIT                      <
>     RH     - RELATIVE HUMIDITY IN PERCENT                <
>     WIND   - DIRECTION AND SPEED IN MPH                  <
>     PRES   - MEAN SEA LEVEL PRESSURE IN INCHES OF HG     <
>     WCI    - WIND CHILL INDEX                            <
>     VSB    - VISIBILITY IN MILES                         <
>     HX     - HEAT INDEX                                  <
>     TC     - TEMPERATURE IN CELSIUS                      <
>     VRB    - VARIABLE WIND DIRECTION                     <
>                                                          <
>>>>>>>>>>>>>>>>>>>>>>>>>>>> KEY <<<<<<<<<<<<<<<<<<<<<<<<<<<





USA.gov is the U.S. government's official web portal to all federal, state and local government web resources and services.